Tracking 28125 objects as of 2-Oct-2023
HD Live streaming from Space Station
objects crossing your sky now

SL-8 R/B

Track SL-8 R/B now!
10-day predictions


NORAD ID: 14059
Int'l Code: 1983-042B
Perigee: 944.6 km
Apogee: 1,005.5 km
Inclination: 83.0 °
Period: 104.4 minutes
Semi major axis: 7346 km
RCS: 4.9423 m2 (large)
Launch date: May 6, 1983
Source: Commonwealth of Independent States (former USSR) (CIS)
Launch site: PLESETSK MISSILE AND SPACE COMPLEX (PKMTR)

Note: This is a ROCKET BODY
Your satellite tracking list
Your tracking list is empty




NASA's NSSDC Master Catalog

Two Line Element Set (TLE):
1 14059U 83042B   23274.93201702  .00000140  00000-0  12250-3 0  9996
2 14059  82.9737 156.1452 0041407 293.3023  66.3780 13.78867015 32101
Source of the keplerian elements: AFSPC